Regional Weather Roundup
Issued by NWS

Home | Current Version | Previous Version | Graphics & Text | Print | Product List | Glossary Off
Versions: 1 2 3 4 5 6 7 8 9 10 11 12 13 14 15 16 17 18 19 20 21 22 23 24 25 26 27 28 29 30 31 32 33 34 35 36 37 38 39 40 41 42 43 44 45 46 47 48 49 50

520
ASUS43 KDMX 211526
RWRIA

WEATHER ROUNDUP FOR IOWA
NATIONAL WEATHER SERVICE DES MOINES IA
900 AM CST TUE FEB 21 2017

NOTE: "FAIR" INDICATES FEW OR NO CLOUDS BELOW 12,000 FEET WITH NO
SIGNIFICANT WEATHER AND/OR OBSTRUCTIONS TO VISIBILITY.

* - THESE STATIONS ARE NOT NWS STATIONS...THUS NOT UNDER NWS
QUALITY CONTROL.  THEY ALSO DO NOT REPORT WEATHER SUCH
AS PRECIPITATION OR FOG.

IAZ001>003-012>014-020>022-031>034-043>046-211600-
   NORTHWEST IOWA

CITY           SKY/WX    TMP DP  RH WIND       PRES   REMARKS
CARROLL *      SUNNY     45  45 100 SW10      29.97S
CHEROKEE *     SUNNY     41  41 100 S6        29.93F
DENISON *      SUNNY     41  41 100 CALM      29.95F
LE MARS *      SUNNY     43  39  87 S10       29.92F
SHELDON *      SUNNY     43  43 100 S15       29.88S
SIOUX CITY     SUNNY     39  37  92 SE8       29.94  WCI  33
SPENCER        SUNNY     41  38  89 S10       29.91
STORM LAKE *   SUNNY     43  39  87 SW7       29.93F
$$

IAZ055>058-069>071-079>083-090>094-211600-
   SOUTHWEST IOWA

CITY           SKY/WX    TMP DP  RH WIND       PRES   REMARKS
ATLANTIC *     SUNNY     41  41 100 S6        30.00F
CLARINDA *     SUNNY     41  41 100 CALM      30.04S
COUNCIL BLFS * SUNNY     43  43 100 SW7       29.99F
CRESTON *      SUNNY     46  45  93 W5        30.01R
HARLAN  *      FOG       34  34 100 CALM      30.02F VSB<1/4
LAMONI         SUNNY     50  43  77 VRB3      29.99
RED OAK *      SUNNY     43  43 100 CALM      30.02S
SHENANDOAH *   SUNNY     41  41 100 CALM      30.03S
$$

IAZ047>049-059>061-072>074-084-211600-
   CENTRAL IOWA

CITY           SKY/WX    TMP DP  RH WIND       PRES   REMARKS
AMES           MOSUNNY   40  40 100 W8        29.98  WCI  34
ANKENY *       SUNNY     46  46 100 VRB3      29.99R
BOONE *        SUNNY     43  43 100 W8        29.98R
CHARITON *     SUNNY     50  45  81 CALM      29.99R
DES MOINES     MOSUNNY   45  42  89 S6        29.98
GRINNELL*      SUNNY     44  43  97 CALM      29.98F FOG
KNOXVILLE *    SUNNY     46  45  93 CALM      29.97S
MARSHALLTOWN   FOG       34  34 100 S3        29.96  VSB 3/4
NEWTON *       FOG       43  43 100 SW3       29.97S VSB<1/4
PELLA *        PTSUNNY   45  44  98 CALM      30.00R FOG
PERRY *          N/A     43  42  95 W9        29.99R
$$

IAZ004>006-015-016-023>025-035-036-211600-
   NORTH CENTRAL IOWA

CITY           SKY/WX    TMP DP  RH WIND       PRES   REMARKS
ALGONA *       SUNNY     39  39 100 S9        29.93R WCI  33
CLARION *      SUNNY     37  37 100 S7        29.95F FOG     WCI  32
ESTHERVILLE    SUNNY     44  39  82 S15       29.90
FORT DODGE *   SUNNY     41  39  93 S5        29.95F
MASON CITY     SUNNY     39  39 100 S6        29.95  WCI  35
FOREST CITY *    N/A     41  41 100 SW7       29.94S
IOWA FALLS *   PTSUNNY   40  39  97 W7        29.98R FOG     WCI  35
$$

IAZ007>011-017>019-026>030-037>042-050>054-066-211600-
   NORTHEAST IOWA

CITY           SKY/WX    TMP DP  RH WIND       PRES   REMARKS
CEDAR RAPIDS   MOSUNNY   41  41 100 CALM      29.97  FOG
CHARLES CITY * FOG       36  36 100 CALM      29.95S VSB<1/4
CLINTON *      MOSUNNY   45  45 100 NW3       29.97  FOG
DECORAH *      FOG       36  36 100 CALM      29.93F VSB<1/4
DUBUQUE        CLOUDY    45  40  82 N8        29.95
MONTICELLO *   CLOUDY    43  43 100 NW5       29.97R
OELWEIN *      FOG       36  36 100 CALM      29.96S VSB<1/4
WATERLOO       MOSUNNY   36  36 100 CALM      29.96  FOG
$$

IAZ064-065-067-068-078-211600-
   EAST CENTRAL IOWA

CITY           SKY/WX    TMP DP  RH WIND       PRES   REMARKS
DAVENPORT      CLOUDY    47  45  93 N3        29.96
IOWA CITY      MOSUNNY   47  43  86 W3        30.00
MUSCATINE *    MOSUNNY   48  43  81 N5        29.99R
QUAD CITIES    CLOUDY    53  45  74 CALM      29.95
$$

IAZ062-063-075>077-085>089-095>099-211600-
   SOUTHEAST IOWA

CITY           SKY/WX    TMP DP  RH WIND       PRES   REMARKS
BURLINGTON     PTSUNNY   51  48  89 N9        29.95
FAIRFIELD *    MOSUNNY   50  45  81 N7        29.99R
KEOKUK *       MOSUNNY   52  48  87 N7        29.96R
OTTUMWA        CLOUDY    46  45  96 NW6       29.99
WASHINGTON *   CLOUDY    50  46  87 NW5       30.00R
$$

ABBREVIATIONS USED IN REMARKS
   TC - TEMPERATURES IN CELSIUS
  WCI - WIND CHILL INDEX
   HX - HEAT INDEX
  VSB - VISIBILITY
$$





USA.gov is the U.S. government's official web portal to all federal, state and local government web resources and services.